This demonstration page uses our WeatherBlox Daily Observations layout. Learn more.

Left ArrowRight Arrow

39.01783, -85.05884

Hourly Observations for August 13, 2021

Temp ( °F °C ) Dew Point ( °F °C ) Humidity (%) Winds ( mph kmh ) Pressure ( in mb ) Visibility ( mi km ) Precip ( " mm )
12:52 am 00:52 Cloudy 75 23.9 65 18.3 71 71 SSW 10 17 30.03 1017 10 16 0.00 0.00
1:52 am 01:52 Mostly Cloudy 74 23.3 66 18.9 76 76 Calm 30.04 1017 10 16 0.00 0.00
2:52 am 02:52 Partly Cloudy 72 22.2 67 19.4 84 84 S 3 6 30.04 1017 10 16 0.00 0.00
3:52 am 03:52 Partly Cloudy 71 21.7 67 19.4 87 87 S 7 11 30.02 1017 10 16 0.00 0.00
4:52 am 04:52 Mostly Cloudy 72 22.2 67 19.4 84 84 SSW 7 11 30.02 1017 10 16 0.00 0.00
5:52 am 05:52 Mostly Cloudy 72 22.2 67 19.4 84 84 SSW 8 13 30.03 1017 10 16 0.00 0.00
6:52 am 06:52 Mostly Cloudy 73 22.8 68 20 84 84 SSW 6 9 30.05 1018 10 16 0.00 0.00
7:52 am 07:52 Partly Cloudy 74 23.3 69 20.6 85 85 SSW 9 15 30.06 1018 10 16 0.00 0.00
8:52 am 08:52 Partly Cloudy 77 25 70 21.1 79 79 SW 8 13 30.07 1018 10 16 0.00 0.00
9:52 am 09:52 Partly Cloudy 81 27.2 71 21.7 72 72 SSW 8 13 30.07 1018 10 16 0.00 0.00
10:52 am 10:52 Mostly Cloudy 85 29.4 72 22.2 65 65 WSW 6 9 30.07 1018 10 16 0.00 0.00
11:52 am 11:52 Mostly Cloudy 87 30.6 73 22.8 63 63 SSW 8 13 30.09 1019 10 16 0.00 0.00
12:52 pm 12:52 Mostly Cloudy 87 30.6 72 22.2 61 61 WSW 12 19 30.07 1018 10 16 0.00 0.00
1:52 pm 13:52 Cloudy with Light Rain 86 30 72 22.2 63 63 WSW 7 11 30.06 1018 9 14 0.00 0.00
2:37 pm 14:37 Mostly Cloudy with Nearby Thunderstorms 90 32.2 72 22.2 56 56 W 16 26 30.02 1017 10 16 0.00 0.00
2:52 pm 14:52 Mostly Cloudy 91 32.8 71 21.7 52 52 W 15 24 30.04 1017 10 16 0.00 0.00
3:11 pm 15:11 Cloudy with Nearby Thunderstorms 87 30.6 71 21.7 59 59 W 12 19 30.02 1017 10 16 0.00 0.00
3:35 pm 15:35 Cloudy 88 31.1 69 20.6 54 54 W 13 20 30.01 1016 10 16 0.00 0.00
3:52 pm 15:52 Cloudy 88 31.1 69 20.6 54 54 W 14 22 30.04 1017 10 16 0.00 0.00
4:52 pm 16:52 Mostly Cloudy 88 31.1 70 21.1 55 55 W 9 15 30.03 1017 10 16 0.00 0.00
5:52 pm 17:52 Mostly Cloudy 88 31.1 69 20.6 54 54 WNW 10 17 30.03 1017 10 16 0.00 0.00
6:52 pm 18:52 Mostly Cloudy 87 30.6 69 20.6 55 55 NW 8 13 30.03 1017 10 16 0.00 0.00
7:52 pm 19:52 Mostly Cloudy 84 28.9 70 21.1 63 63 WNW 8 13 30.05 1018 10 16 0.00 0.00
8:30 pm 20:30 Cloudy with Nearby Thunderstorms 83 28.3 69 20.6 63 63 NW 9 15 30.06 1018 10 16 0.00 0.00
8:52 pm 20:52 Cloudy with Nearby Thunderstorms 79 26.1 67 19.4 67 67 S 17 28 30.09 1019 10 16 0.00 0.00
9:11 pm 21:11 Mostly Cloudy 76 24.4 67 19.4 74 74 S 18 30 30.08 1019 10 16 0.00 0.00
9:52 pm 21:52 Mostly Cloudy 74 23.3 67 19.4 79 79 SSE 10 17 30.10 1019 10 16 0.00 0.00
10:52 pm 22:52 Mostly Cloudy 73 22.8 67 19.4 81 81 Calm 30.08 1019 10 16 0.00 0.00
11:52 pm 23:52 Partly Cloudy 70 21.1 66 18.9 87 87 Calm 30.08 1019 10 16 0.00 0.00

Powered by AerisWeather